TimeCST,TemperatureF,Dew PointF,Humidity,Sea Level PressureIn,VisibilityMPH,Wind Direction,Wind SpeedMPH,Gust SpeedMPH,PrecipitationIn,Events,Conditions,WindDirDegrees,DateUTC
12:46 AM,69.1,66.9,93,29.88,9.0,SSE,6.9,-,N/A,,Mostly Cloudy,160,2013-12-05 06:46:00
12:53 AM,69.1,66.9,93,29.90,9.0,SSE,6.9,-,N/A,,Mostly Cloudy,160,2013-12-05 06:53:00
1:53 AM,68.0,66.0,93,29.90,8.0,SSE,5.8,-,N/A,,Mostly Cloudy,160,2013-12-05 07:53:00
2:16 AM,69.1,66.9,93,29.89,8.0,SSE,5.8,-,N/A,,Overcast,160,2013-12-05 08:16:00
2:53 AM,69.1,66.9,93,29.90,7.0,SSE,5.8,-,N/A,,Overcast,160,2013-12-05 08:53:00
3:04 AM,69.1,66.9,93,29.88,7.0,SSE,6.9,-,N/A,,Overcast,150,2013-12-05 09:04:00
3:15 AM,69.1,66.9,93,29.89,7.0,SSE,5.8,-,N/A,,Overcast,160,2013-12-05 09:15:00
3:53 AM,69.1,66.9,93,29.91,7.0,SSE,4.6,-,N/A,,Overcast,150,2013-12-05 09:53:00
4:53 AM,70.0,68.0,93,29.92,7.0,SSE,5.8,-,N/A,,Overcast,160,2013-12-05 10:53:00
5:53 AM,70.0,68.0,93,29.94,7.0,SSE,6.9,-,N/A,,Overcast,160,2013-12-05 11:53:00
6:53 AM,70.0,68.0,93,29.95,7.0,SSE,8.1,-,N/A,,Overcast,150,2013-12-05 12:53:00
7:50 AM,71.6,68.0,88,29.94,6.0,SSE,8.1,-,N/A,,Overcast,150,2013-12-05 13:50:00
7:53 AM,71.1,68.0,90,29.96,6.0,SSE,8.1,-,N/A,,Overcast,150,2013-12-05 13:53:00
8:01 AM,71.1,68.0,90,29.95,6.0,SSE,6.9,-,N/A,,Overcast,160,2013-12-05 14:01:00
8:53 AM,73.0,69.1,87,29.98,8.0,SSE,9.2,-,N/A,,Overcast,160,2013-12-05 14:53:00
9:07 AM,73.0,69.1,87,29.96,9.0,South,8.1,-,N/A,,Overcast,170,2013-12-05 15:07:00
9:53 AM,73.9,69.1,85,29.99,9.0,South,8.1,-,N/A,,Overcast,170,2013-12-05 15:53:00
10:28 AM,77.0,69.1,76,29.96,10.0,South,12.7,19.6,N/A,,Overcast,190,2013-12-05 16:28:00
10:53 AM,78.1,69.1,74,29.97,10.0,South,13.8,19.6,N/A,,Mostly Cloudy,180,2013-12-05 16:53:00
11:53 AM,78.1,68.0,71,29.95,10.0,SSW,10.4,18.4,N/A,,Overcast,200,2013-12-05 17:53:00
12:08 PM,79.0,68.0,69,29.92,10.0,SSW,11.5,18.4,N/A,,Overcast,200,2013-12-05 18:08:00
12:53 PM,80.1,68.0,67,29.92,10.0,SSW,9.2,19.6,N/A,,Mostly Cloudy,210,2013-12-05 18:53:00
1:02 PM,80.1,68.0,67,29.90,10.0,SSW,6.9,-,N/A,,Mostly Cloudy,200,2013-12-05 19:02:00
1:35 PM,80.1,68.0,67,29.89,10.0,South,9.2,-,N/A,,Overcast,190,2013-12-05 19:35:00
1:53 PM,80.1,68.0,67,29.90,10.0,South,10.4,-,N/A,,Overcast,180,2013-12-05 19:53:00
2:53 PM,59.0,53.1,81,29.94,10.0,North,15.0,21.9,0.00,Rain,Light Rain,10,2013-12-05 20:53:00
3:29 PM,55.0,50.0,83,29.93,10.0,NNE,17.3,-,0.00,Rain,Light Rain,20,2013-12-05 21:29:00
3:53 PM,53.1,48.9,86,29.96,10.0,North,11.5,-,0.00,Rain,Light Rain,360,2013-12-05 21:53:00
4:06 PM,53.1,48.9,86,29.94,10.0,North,13.8,-,0.00,Rain,Light Rain,360,2013-12-05 22:06:00
4:53 PM,50.0,48.0,93,30.00,10.0,North,12.7,23.0,0.00,Rain,Light Rain,350,2013-12-05 22:53:00
5:53 PM,48.9,46.0,90,30.02,10.0,North,17.3,-,0.00,Rain,Light Rain,10,2013-12-05 23:53:00
6:53 PM,46.9,45.0,93,30.02,10.0,NNE,12.7,-,0.00,Rain,Light Rain,20,2013-12-06 00:53:00
7:53 PM,46.0,43.0,89,30.05,10.0,North,13.8,-,0.00,Rain,Light Rain,10,2013-12-06 01:53:00
8:53 PM,46.0,43.0,89,30.05,10.0,North,9.2,-,0.00,Rain,Light Rain,10,2013-12-06 02:53:00
9:40 PM,44.1,42.1,93,30.03,2.0,North,8.1,-,0.11,Rain,Heavy Rain,360,2013-12-06 03:40:00
9:48 PM,44.6,42.8,93,30.04,2.5,North,6.9,-,0.14,Rain,Heavy Rain,360,2013-12-06 03:48:00
9:53 PM,43.0,42.1,97,30.06,3.0,North,10.4,-,0.15,Rain,Rain,10,2013-12-06 03:53:00
10:02 PM,43.0,42.1,97,30.04,8.0,North,10.4,-,0.00,Rain,Light Rain,360,2013-12-06 04:02:00
10:24 PM,43.0,41.0,93,30.05,4.0,North,10.4,-,0.01,Rain,Light Rain,350,2013-12-06 04:24:00
10:53 PM,43.0,41.0,93,30.08,6.0,North,8.1,-,0.05,Rain,Light Rain,360,2013-12-06 04:53:00
11:23 PM,43.0,39.9,89,30.04,9.0,NNE,13.8,-,0.00,Rain,Light Rain,20,2013-12-06 05:23:00
11:53 PM,42.1,39.9,92,30.07,10.0,North,8.1,-,0.01,Rain,Light Rain,350,2013-12-06 05:53:00